User: anonymous   Login
Location: Kelowna
(49.8880°N, 119.4960°W)
Time: 11:50:00
(UTC-07:00)
Language:

CAS-6 - Orbit

View from above orbital plane
View from above orbital plane
View from above satellite
View from above satellite

Ground track
Ground track

The orbit data is extracted from the following two-line orbital elements,

1 44881U 19093C   24113.46820426  .00003363  00000-0  41420-3 0  9999
2 44881  97.8295 191.3296 0015436 141.0808 219.1520 14.83519451234784
Epoch (UTC): 22 April 2024 11:14:12
Eccentricity: 0.0015436
inclination: 97.8295°
perigee height: 607 km
apogee height: 629 km
right ascension of ascending node: 191.3296°
argument of perigee: 141.0808°
revolutions per day: 14.83519451
mean anomaly at epoch: 219.1520°
orbit number at epoch: 23478

The dashed part of the orbit path shows where the satellite is in the earth's shadow,  

DLR